Location: Unspecified
(0.0000°N, 0.0000°E)
Time: 20:24:34
(UTC+02:00)

H-2A R/B - Visible Passes

Search period start: 30 May 2016 00:00
Search period end: 09 June 2016 00:00
Orbit: 269 x 33194 km, 27.9° (Epoch: 29 May)

Date Brightness Start Highest point End Pass type
(mag) Time Alt. Az. Time Alt. Az. Time Alt. Az.
30 May 10.0 02:50:43 10° ENE 06:21:27 25° ENE 07:41:28 10° E visible
31 May 6.1 04:28:32 13° WNW 08:06:13 57° NNW 13:30:41 10° SE visible
31 May 6.3 23:53:38 36° ENE 23:53:38 36° ENE 08:28:11 10° E visible
02 Jun 5.8 05:06:09 10° WNW 07:50:15 52° NNW 14:05:43 10° SE visible
03 Jun 5.9 00:26:14 52° NE 00:26:14 52° NE 09:09:54 10° E visible
04 Jun 5.5 05:46:15 10° WNW 08:09:43 46° NW 14:40:25 10° SSE visible
05 Jun 5.7 00:58:38 64° N 00:58:38 64° N 09:49:02 10° ESE visible
06 Jun 5.3 06:28:28 10° WNW 08:38:32 39° NW 15:14:47 10° SSE visible
07 Jun 5.7 01:30:45 54° NW 01:35:29 59° NNW 10:26:37 10° ESE visible
08 Jun 5.2 07:14:07 10° WNW 09:09:48 30° NW 15:48:38 10° S visible
